Вернуться в каталог

STARLINK-30151

АктивенСвязьVLEO
NORAD 56827·PAYLOAD·🇺🇸 United States

Запущен Jun 4, 2023 с Cape Canaveral Space Force Station

Loading…

Ближайшие Пролёты (ближайшие 24 часа)

TLE

СвежийSource: CelesTrak SupGP

Эпоха: Sep 14, 2026, 14:08 UTC

1 56827C 23079E   26257.58937500  .00029610  00000+0  10724-2 0  2578
2 56827  43.0003 120.2496 0001519 261.1808 250.8369 15.27564984    11

Отслеживайте STARLINK-30151 в реальном времени с AllMySat

Download on the App Store